Date String (YYYY-MM-DD hh:mm:ss) UTC,Instrument flags,absolute air pressure of the measurement (hPa),sample flow rate (lpm),inlet stack bypass flow (lpm),air temperature of the measurement (°C),ambient temperature measured by the external sensor (°C),aerosol sample conditioner tube jacket temperature (°C),OPC LED temperature (°C),internal box temperature (°C),relative humidity of the measurement (%),span deviation,mass concentration of particles derived from Lorenz-Mie calculation of OPC scattering (μg/m³),mass concentration of particles derived from Lorenz-Mie calculation of OPC scattering (μg/m³),mass concentration of particles derived from Lorenz-Mie calculation of OPC scattering (μg/m³)
DateTimeUTC,F1_M11,P_M11,Q1_M11,Q2_M11,T1_M11,T2_M11,T3_M11,T4_M11,T5_M11,U1_M11,ZSPAN_M11,X2_M11,X0_M11,X1_M11
2023-11-25 15:00:00,SystemResetWarning,0829.1,5.00,000.00,019.0,018.2,000.0,027.3,020.1,10.9,0000.0,0004.46,0007.28,0004.07
2023-11-25 15:01:00,SystemResetWarning,0829.1,5.01,000.00,019.0,018.2,000.0,027.3,020.1,10.9,0000.0,0004.48,0007.35,0004.09
2023-11-25 15:02:00,SystemResetWarning,0829.1,5.00,000.00,019.0,018.2,000.0,027.3,020.1,10.9,0000.0,0004.47,0007.30,0004.10
2023-11-25 15:03:00,SystemResetWarning,0829.1,5.00,000.00,019.0,018.1,000.0,027.3,020.1,11.0,0000.0,0004.48,0007.23,0004.12
2023-11-25 15:04:00,SystemResetWarning,0829.1,5.00,000.00,019.0,018.1,000.0,027.3,020.1,11.0,0000.0,0004.49,0007.10,0004.15
2023-11-25 15:05:00,SystemResetWarning,0829.1,5.00,000.00,019.0,018.1,000.0,027.3,020.1,11.0,0000.0,0004.51,0007.20,0004.16
2023-11-25 15:06:00,SystemResetWarning,0829.1,4.99,000.00,019.0,018.1,000.0,027.3,020.1,11.0,0000.0,0004.53,0007.28,0004.17
2023-11-25 15:07:00,SystemResetWarning,0829.1,4.99,000.00,018.9,018.1,000.0,027.3,020.0,11.1,0000.0,0004.57,0007.33,0004.19
2023-11-25 15:08:00,SystemResetWarning,0829.2,5.00,000.00,018.9,018.1,000.0,027.3,020.0,11.1,0000.0,0004.62,0007.68,0004.22
2023-11-25 15:09:00,SystemResetWarning,0829.2,5.00,000.00,018.9,018.0,000.0,027.3,020.0,11.1,0000.0,0004.65,0007.87,0004.24
2023-11-25 15:10:00,SystemResetWarning,0829.2,5.00,000.00,018.9,018.0,000.0,027.2,020.0,11.1,0000.0,0004.66,0007.90,0004.25
2023-11-25 15:11:00,SystemResetWarning,0829.2,5.00,000.00,018.9,018.1,000.0,027.2,020.3,11.1,0000.0,0004.64,0007.85,0004.25
2023-11-25 15:12:00,SystemResetWarning,0829.2,5.02,000.00,019.1,018.8,000.0,027.2,020.9,11.0,0000.0,0004.63,0007.77,0004.26
2023-11-25 15:13:00,SystemResetWarning,0829.3,4.99,000.00,019.2,019.4,000.0,027.3,021.1,10.9,0000.0,0004.64,0007.72,0004.26
2023-11-25 15:14:00,SystemResetWarning,0829.2,4.99,000.00,019.3,019.3,000.0,027.3,020.9,10.9,0000.0,0004.62,0007.69,0004.26
2023-11-25 15:15:00,SystemResetWarning,0829.2,5.01,000.00,019.3,019.2,000.0,027.4,020.7,10.9,0000.0,0004.60,0007.66,0004.25
2023-11-25 15:16:00,SystemResetWarning,0829.2,5.01,000.00,019.3,019.1,000.0,027.4,020.7,10.9,0000.0,0004.62,0007.70,0004.27
2023-11-25 15:17:00,SystemResetWarning,0829.2,5.00,000.00,019.3,019.0,000.0,027.4,020.6,10.9,0000.0,0004.65,0007.80,0004.29
2023-11-25 15:18:00,SystemResetWarning,0829.2,4.99,000.00,019.2,018.8,000.0,027.4,020.5,10.9,0000.0,0004.64,0007.73,0004.31
2023-11-25 15:19:00,SystemResetWarning,0829.2,5.00,000.00,019.2,018.7,000.0,027.4,020.4,10.9,0000.0,0004.62,0007.50,0004.31
2023-11-25 15:20:00,SystemResetWarning,0829.2,5.01,000.00,019.2,018.7,000.0,027.4,020.4,10.9,0000.0,0004.60,0007.21,0004.32
2023-11-25 15:21:00,SystemResetWarning,0829.2,5.01,000.00,019.2,018.6,000.0,027.4,020.4,11.0,0000.0,0004.62,0007.20,0004.35
2023-11-25 15:22:00,SystemResetWarning,0829.2,5.00,000.00,019.2,018.5,000.0,027.4,020.3,11.0,0000.0,0004.64,0007.27,0004.36
2023-11-25 15:23:00,SystemResetWarning,0829.2,5.01,000.00,019.2,018.4,000.0,027.4,020.3,11.0,0000.0,0004.65,0007.30,0004.37
2023-11-25 15:24:00,SystemResetWarning,0829.2,5.00,000.00,019.2,018.4,000.0,027.4,020.3,11.0,0000.0,0004.67,0007.36,0004.37
2023-11-25 15:25:00,SystemResetWarning,0829.2,5.00,000.00,019.1,018.4,000.0,027.4,020.3,11.0,0000.0,0004.68,0007.38,0004.37
2023-11-25 15:26:00,SystemResetWarning,0829.2,4.99,000.00,019.1,018.3,000.0,027.4,020.3,11.0,0000.0,0004.69,0007.41,0004.38
2023-11-25 15:27:00,SystemResetWarning,0829.2,5.00,000.00,019.1,018.3,000.0,027.4,020.2,11.0,0000.0,0004.70,0007.45,0004.36
2023-11-25 15:28:00,SystemResetWarning,0829.2,5.01,000.00,019.1,018.3,000.0,027.4,020.2,11.0,0000.0,0004.68,0007.36,0004.35
2023-11-25 15:29:00,SystemResetWarning,0829.2,5.00,000.00,019.1,018.2,000.0,027.4,020.2,11.0,0000.0,0004.68,0007.40,0004.33
2023-11-25 15:30:00,SystemResetWarning,0829.2,5.00,000.00,019.1,018.2,000.0,027.4,020.2,11.1,0000.0,0004.66,0007.37,0004.31
2023-11-25 15:31:00,SystemResetWarning,0829.2,4.99,000.00,019.1,018.2,000.0,027.4,020.2,11.1,0000.0,0004.67,0007.39,0004.30
2023-11-25 15:32:00,SystemResetWarning,0829.2,4.99,000.00,019.1,018.2,000.0,027.4,020.1,11.1,0000.0,0004.67,0007.44,0004.28
2023-11-25 15:33:00,SystemResetWarning,0829.3,5.01,000.00,019.0,018.1,000.0,027.3,020.1,11.1,0000.0,0004.65,0007.39,0004.26
2023-11-25 15:34:00,SystemResetWarning,0829.3,5.01,000.00,019.0,018.1,000.0,027.3,020.1,11.1,0000.0,0004.64,0007.37,0004.24
2023-11-25 15:35:00,SystemResetWarning,0829.3,5.00,000.00,019.0,018.1,000.0,027.3,020.1,11.1,0000.0,0004.65,0007.37,0004.25
2023-11-25 15:36:00,SystemResetWarning,0829.3,5.00,000.00,019.0,018.1,000.0,027.3,020.2,11.1,0000.0,0004.66,0007.40,0004.25
2023-11-25 15:37:00,SystemResetWarning,0829.3,4.99,000.00,019.1,018.4,000.0,027.3,020.6,11.1,0000.0,0004.64,0007.40,0004.23
2023-11-25 15:38:00,SystemResetWarning,0829.4,5.01,000.00,019.2,019.2,000.0,027.3,021.1,11.1,0000.0,0004.63,0007.42,0004.21
2023-11-25 15:39:00,SystemResetWarning,0829.4,4.99,000.00,019.3,019.4,000.0,027.4,021.1,11.0,0000.0,0004.64,0007.45,0004.21
2023-11-25 15:40:00,SystemResetWarning,0829.3,4.99,000.00,019.3,019.3,000.0,027.4,020.9,11.0,0000.0,0004.62,0007.42,0004.20
2023-11-25 15:41:00,SystemResetWarning,0829.3,5.00,000.00,019.3,019.2,000.0,027.4,020.8,11.0,0000.0,0004.62,0007.45,0004.20
2023-11-25 15:42:00,SystemResetWarning,0829.3,5.01,000.00,019.3,019.1,000.0,027.5,020.7,11.1,0000.0,0004.64,0007.47,0004.19
2023-11-25 15:43:00,SystemResetWarning,0829.3,4.99,000.00,019.3,018.9,000.0,027.5,020.6,11.1,0000.0,0004.61,0007.41,0004.18
2023-11-25 15:44:00,SystemResetWarning,0829.3,4.98,000.00,019.3,018.8,000.0,027.5,020.5,11.1,0000.0,0004.62,0007.47,0004.18
2023-11-25 15:45:00,SystemResetWarning,0829.3,5.01,000.00,019.3,018.7,000.0,027.5,020.4,11.1,0000.0,0004.63,0007.58,0004.19
2023-11-25 15:46:00,SystemResetWarning,0829.4,5.01,000.00,019.3,018.7,000.0,027.5,020.4,11.2,0000.0,0004.61,0007.56,0004.19
2023-11-25 15:47:00,SystemResetWarning,0829.3,4.99,000.00,019.2,018.6,000.0,027.5,020.4,11.2,0000.0,0004.61,0007.55,0004.19
2023-11-25 15:48:00,SystemResetWarning,0829.3,4.99,000.00,019.2,018.5,000.0,027.5,020.4,11.2,0000.0,0004.60,0007.48,0004.20
2023-11-25 15:49:00,SystemResetWarning,0829.3,5.01,000.00,019.2,018.5,000.0,027.5,020.3,11.3,0000.0,0004.60,0007.41,0004.21
2023-11-25 15:50:00,SystemResetWarning,0829.3,5.01,000.00,019.2,018.4,000.0,027.5,020.3,11.3,0000.0,0004.59,0007.34,0004.22
2023-11-25 15:51:00,SystemResetWarning,0829.2,4.98,000.00,019.2,018.4,000.0,027.5,020.3,11.3,0000.0,0004.59,0007.31,0004.22
2023-11-25 15:52:00,SystemResetWarning,0829.2,5.00,000.00,019.2,018.4,000.0,027.5,020.3,11.4,0000.0,0004.60,0007.29,0004.23
2023-11-25 15:53:00,SystemResetWarning,0829.2,5.01,000.00,019.2,018.3,000.0,027.4,020.2,11.4,0000.0,0004.55,0007.10,0004.21
2023-11-25 15:54:00,SystemResetWarning,0829.2,5.01,000.00,019.1,018.3,000.0,027.4,020.2,11.4,0000.0,0004.55,0007.11,0004.22
2023-11-25 15:55:00,SystemResetWarning,0829.2,5.00,000.00,019.1,018.3,000.0,027.4,020.2,11.5,0000.0,0004.54,0007.03,0004.21
2023-11-25 15:56:00,SystemResetWarning,0829.2,5.00,000.00,019.1,018.3,000.0,027.4,020.1,11.5,0000.0,0004.53,0006.79,0004.20
2023-11-25 15:57:00,SystemResetWarning,0829.1,4.99,000.00,019.1,018.2,000.0,027.4,020.1,11.6,0000.0,0004.51,0006.62,0004.20
2023-11-25 15:58:00,SystemResetWarning,0829.1,4.99,000.00,019.1,018.2,000.0,027.4,020.1,11.6,0000.0,0004.48,0006.51,0004.18
2023-11-25 15:59:00,SystemResetWarning,0829.1,5.00,000.00,019.1,018.2,000.0,027.4,020.1,11.6,0000.0,0004.48,0006.54,0004.17
